Regional Weather Roundup
Issued by NWS

Home | Current Version | Previous Version | Text Only | Print | Product List | Glossary On
Versions: 1 2 3 4 5 6 7 8 9 10 11 12 13 14 15 16 17 18 19 20 21 22 23 24 25 26 27 28
000
ASUS44 KLIX 290611
RWRLA
LOUISIANA WEATHER ROUNDUP
NATIONAL WEATHER SERVICE NEW ORLEANS LA
100 AM CDT SUN MAY 29 2016

NOTE: "FAIR" INDICATES FEW OR NO CLOUDS BELOW 12,000 FEET WITH NO
      SIGNIFICANT WEATHER AND/OR OBSTRUCTIONS TO VISIBILITY.
      SKY/WX - SKY CONDITION AND SIGNIFICANT WEATHER.
      TMP - AIR TEMPERATURE.    DP   - DEWPOINT TEMPERATURE.
      RH  - RELATIVE HUMIDITY.  PRES - PRESSURE.
      HX  - HEAT INDEX.         WCI  - WIND CHILL INDEX.

*  THESE STATIONS ARE NOT NWS OR FAA STATIONS AND ARE NOT UNDER
   NWS QUALITY CONTROL.

LAZ040-048-061>063-065-066-069-290700-
SOUTHEAST LOUISIANA

CITY           SKY/WX    TMP DP  RH WIND       PRES   REMARKS
N.O. AUDUBON   NOT AVBL
N.O. INTL ARPT PTCLDY    72  69  90 CALM      30.06S
6HR MIN TEMP:  72; 6HR MAX TEMP:  78;

N.O. LAKEFRONT CLEAR     74  68  81 CALM      30.07R
6HR MIN TEMP:  73; 6HR MAX TEMP:  78;

N.O. DOWNTOWN* FAIR      75  71  87 S3        30.06F
6HR MIN TEMP:  75; 6HR MAX TEMP:  77;

RESERVE*       FAIR      72  70  93 CALM      30.06S
6HR MIN TEMP:  71; 6HR MAX TEMP:  80;

SLIDELL        CLEAR     68  67  96 CALM      30.06S
6HR MIN TEMP:  67; 6HR MAX TEMP:  79;

BATON ROUGE    CLEAR     71  68  90 CALM      30.06F
6HR MIN TEMP:  71; 6HR MAX TEMP:  83;

BOOTHVILLE     CLEAR     74  72  93 E3        30.06S
6HR MIN TEMP:  73; 6HR MAX TEMP:  75; 6HR PCP: TRACE;

BELLE CHASSE   CLEAR     68  68 100 CALM      30.05F
6HR MIN TEMP:  68; 6HR MAX TEMP:  76;

BOGALUSA*      FAIR      68  65  90 CALM      30.09S
6HR MIN TEMP:  68; 6HR MAX TEMP:  83;

GALLIANO*      CLEAR     68  67  96 CALM      30.05S
6HR MIN TEMP:  67; 6HR MAX TEMP:  78;

NEW ROADS*     FAIR      72  69  90 CALM      30.06F
6HR MIN TEMP:  72; 6HR MAX TEMP:  83;

GONZALES*      FAIR      68  68 100 CALM      30.05S
6HR MIN TEMP:  68; 6HR MAX TEMP:  78;

HAMMOND*       CLEAR     68  64  88 CALM      30.06F
HOUMA*         CLEAR     70  70 100 CALM      30.05F
6HR MIN TEMP:  69; 6HR MAX TEMP:  73;

PORT FOURCHON* CLEAR     77  72  83 NE3       30.05F

$$

LAZ041-044-053-054-290700-
SOUTHWEST LOUISIANA

CITY           SKY/WX    TMP DP  RH WIND       PRES   REMARKS
LAKE CHARLES   FOG       74  72  93 CALM      30.03F VSB 1/2
6HR MIN TEMP:  74; 6HR MAX TEMP:  83;

LAFAYETTE      CLEAR     73  71  93 CALM      30.05F
6HR MIN TEMP:  73; 6HR MAX TEMP:  83;

PATTERSON      PTCLDY    70  70 100 CALM      30.05F
6HR MIN TEMP:  70; 6HR MAX TEMP:  81;

SALT POINT       N/A     73  71  93 CALM      30.03F
6HR MIN TEMP:  72; 6HR MAX TEMP:  82;

NEW IBERIA     CLEAR     73  69  87 E3        30.06F
6HR MIN TEMP:  72; 6HR MAX TEMP:  82;

CHENAULT AIRPK NOT AVBL

$$

LAZ027-028-290700-
CENTRAL LOUISIANA

CITY           SKY/WX    TMP DP  RH WIND       PRES   REMARKS
FORT POLK      MOCLDY    72  70  95 SE5       30.04S
6HR MIN TEMP:  70; 6HR MAX TEMP:  79;

ALEXANDRIA INT CLEAR     70  69  97 CALM      30.03S
6HR MIN TEMP:  70; 6HR MAX TEMP:  83;

ALEXANDRIA     PTCLDY    70  67  90 CALM      30.05S FOG
6HR MIN TEMP:  68; 6HR MAX TEMP:  87;


$$

LAZ001-002-290700-
NORTHWEST LOUISIANA

CITY           SKY/WX    TMP DP  RH WIND       PRES   REMARKS
SHREVEPORT     PTCLDY    73  70  90 S5        30.03S
6HR MIN TEMP:  73; 6HR MAX TEMP:  86;

BARKSDALE AFB  CLEAR     70  70 100 S3        30.04R
6HR MIN TEMP:  70; 6HR MAX TEMP:  85;

DTN SHREVEPORT CLEAR     73  69  87 SE5       30.04R
6HR MIN TEMP:  73; 6HR MAX TEMP:  86;


$$

LAZ014-016-290700-
NORTHEAST LOUISIANA

CITY           SKY/WX    TMP DP  RH WIND       PRES   REMARKS
MONROE         CLEAR     72  69  90 S3        30.05F
6HR MIN TEMP:  71; 6HR MAX TEMP:  84;

TALLULAH       CLEAR     72  69  90 CALM      30.05S
6HR MIN TEMP:  72; 6HR MAX TEMP:  84;


$$





USA.gov is the U.S. government's official web portal to all federal, state and local government web resources and services.